2020-102E (47300 NORAD) Tracking and Keplerian Element Data

This shows tracking and keplerian element data for the satellite.

Feedback or suggestion? Click here.




ElementValue
Catalog47300
Name2020-102E
Epoch Orbit1651
Epoch Day99.89481137
Epoch Year2021
RAAN198.7869
Inclination97.4297
Eccentricity0.0006332
Argument of Perigee96.6916
Mean Anonmoly357.5961
Mean Motion15.20856949
Decay Rate1.698E-05
L11 47300U 20102E 21099.89481137 .00001698 00000-0 80006-4 0 9993
L22 47300 97.4297 198.7869 0006332 96.6916 357.5961 15.20856949 16511

Live tracking and technical data element details for 2020-102E (NORAD 47300). 2020-102E can be tracked NOW for your location showing map with azimuth and elevation plus other details from your city location.

Track the satellite on the map from your city or location and see movement details for azimuth, elevation, latitude, longitude, range, height, and movement on the map or in text.







IsCatalogInMostPopularTable: catalog: 47300, numindb: 34
Update: records affected: 1



GetName: 47300 2020-102E

Hit Count: updated at: Sat, 10 Apr 2021 18:41:01 GMT